This demonstration page uses our WeatherBlox Daily Observations layout. Learn more.

Left ArrowRight Arrow

34.02893, -84.19858

Hourly Observations for October 30, 2019

Temp ( °F °C ) Dew Point ( °F °C ) Humidity (%) Winds ( mph kmh ) Pressure ( in mb ) Visibility ( mi km ) Precip ( " mm )
12:17 am 00:17 Cloudy with Mist and Fog 64 17.8 64 17.8 100 100 ENE 5 7 30.15 1021 3 5 0.00 0.00
12:27 am 00:27 Cloudy with Light Rain 64 17.8 64 17.8 100 100 ENE 5 7 30.15 1021 3 4 0.00 0.00
12:36 am 00:36 Cloudy with Mist and Fog 64 17.8 64 17.8 100 100 VRB 5 7 30.14 1021 4 6 0.01 0.25
12:53 am 00:53 Cloudy 64 17.8 64 17.8 100 100 VRB 3 6 30.13 1020 7 11 0.01 0.25
1:35 am 01:35 Cloudy with Light Rain 64 17.8 64 17.8 100 100 VRB 3 6 30.12 1020 8 13 0.00 0.00
1:53 am 01:53 Cloudy 64 17.8 64 17.8 100 100 E 5 7 30.11 1020 8 13 0.00 0.00
2:11 am 02:11 Cloudy with Mist and Fog 64 17.8 64 17.8 100 100 Calm 30.12 1020 6 10 0.00 0.00
2:53 am 02:53 Cloudy with Rain 64 17.8 64 17.8 100 100 Calm 30.11 1020 2 3 0.02 0.51
3:12 am 03:12 Cloudy with Light Rain 65 18.3 64 17.8 97 97 Calm 30.11 1020 3 5 0.03 0.76
3:29 am 03:29 Cloudy with Mist and Fog 65 18.3 64 17.8 97 97 Calm 30.11 1020 2 3 0.03 0.76
3:51 am 03:51 Cloudy with Mist and Fog 64 18 64 18 100 100 Calm 30.10 1019 3 5 0.03 0.76
3:53 am 03:53 Cloudy with Mist and Fog 65 18.3 65 18.3 100 100 Calm 30.09 1019 3 5 0.03 0.76
4:17 am 04:17 Cloudy with Mist and Fog 65 18.3 65 18.3 100 100 VRB 3 6 30.10 1019 3 4 0.00 0.00
4:31 am 04:31 Cloudy with Light Rain 65 18.3 65 18.3 100 100 VRB 3 6 30.10 1019 3 5 0.01 0.25
4:53 am 04:53 Cloudy with Light Rain 65 18.3 65 18.3 100 100 VRB 3 6 30.08 1019 6 10 0.01 0.25
5:53 am 05:53 Cloudy with Mist and Fog 65 18.3 65 18.3 100 100 ESE 6 9 30.09 1019 4 6 0.01 0.25
6:39 am 06:39 Cloudy with Mist and Fog 66 18.9 66 18.9 100 100 VRB 5 7 30.10 1019 2 3 0.01 0.25
6:53 am 06:53 Cloudy with Mist and Fog 66 18.9 66 18.9 100 100 Calm 30.09 1019 3 4 0.01 0.25
7:00 am 07:00 Cloudy with Mist and Fog 66 18.9 66 18.9 100 100 SE 5 7 30.10 1019 3 5 0.00 0.00
7:20 am 07:20 Cloudy with Mist and Fog 66 18.9 66 18.9 100 100 VRB 5 7 30.09 1019 4 6 0.00 0.00
7:53 am 07:53 Cloudy with Mist and Fog 66 18.9 66 18.9 100 100 E 3 6 30.09 1019 4 6 0.00 0.00
8:53 am 08:53 Cloudy with Light Rain 67 19.4 66 18.9 97 97 VRB 3 6 30.08 1019 8 13 0.02 0.51
9:05 am 09:05 Cloudy with Light Rain 67 19.4 66 18.9 97 97 SE 7 11 30.09 1019 10 16 0.01 0.25
9:53 am 09:53 Cloudy with Mist and Fog 67 19.4 67 19.4 100 100 VRB 7 11 30.09 1019 6 10 0.01 0.25
10:14 am 10:14 Cloudy with Light Rain 67 19.4 67 19.4 100 100 SE 7 11 30.09 1019 2 3 0.02 0.51
10:27 am 10:27 Cloudy with Light Rain 67 19.4 67 19.4 100 100 VRB 6 9 30.09 1019 3 5 0.05 1.27
10:44 am 10:44 Cloudy with Light Rain 67 19.4 67 19.4 100 100 SSE 6 9 30.09 1019 5 8 0.06 1.52
10:53 am 10:53 Cloudy with Light Rain 67 19.4 67 19.4 100 100 SSE 5 7 30.08 1019 8 13 0.06 1.52
11:53 am 11:53 Cloudy with Light Rain 67 19.4 67 19.4 100 100 SE 8 13 30.07 1018 4 6 0.01 0.25
12:53 pm 12:53 Cloudy with Light Rain 67 19.4 67 19.4 100 100 SSE 7 11 30.06 1018 4 6 0.07 1.78
1:00 pm 13:00 Cloudy with Light Rain 67 19.4 67 19.4 100 100 VRB 3 6 30.06 1018 2 2 0.02 0.51
1:07 pm 13:07 Cloudy with Light Rain 67 19.4 67 19.4 100 100 VRB 5 7 30.05 1017 3 5 0.03 0.76
1:30 pm 13:30 Cloudy with Light Rain 67 19.4 67 19.4 100 100 VRB 3 6 30.04 1017 3 5 0.09 2.29
1:53 pm 13:53 Cloudy with Light Rain 67 19.4 67 19.4 100 100 VRB 6 9 30.02 1017 3 5 0.10 2.54
2:02 pm 14:02 Cloudy with Light Rain 67 19.4 67 19.4 100 100 VRB 5 7 30.03 1017 2 3 0.03 0.76
2:09 pm 14:09 Cloudy with Light Rain 67 19.4 67 19.4 100 100 VRB 6 9 30.02 1016 1 1 0.15 3.81
2:19 pm 14:19 Cloudy with Light Rain 67 19.4 67 19.4 100 100 SE 6 9 30.02 1016 2 3 0.17 4.32
2:24 pm 14:24 Cloudy with Light Rain 67 19.4 67 19.4 100 100 VRB 5 7 30.02 1016 7 11 0.18 4.57
2:41 pm 14:41 Cloudy with Light Rain 67 19.4 67 19.4 100 100 VRB 5 7 30.01 1016 2 3 0.19 4.83
2:49 pm 14:49 Cloudy with Light Rain 66 19 66 19 100 100 VRB 3 6 30.01 1016 3 5 0.20 5.08
2:53 pm 14:53 Cloudy with Light Rain 67 19.4 67 19.4 100 100 VRB 5 7 30.00 1016 3 5 0.20 5.08
3:53 pm 15:53 Cloudy with Light Rain 67 19.4 67 19.4 100 100 VRB 6 9 29.98 1015 3 4 0.03 0.76
4:53 pm 16:53 Cloudy with Mist and Fog 68 20 67 19.4 96 96 SE 7 11 29.96 1015 3 4 0.08 2.03
5:53 pm 17:53 Cloudy with Rain 69 20.6 69 20.6 100 100 SSE 9 15 29.94 1014 3 4 0.14 3.56
6:53 pm 18:53 Cloudy with Heavy Rain 70 21.1 69 20.6 97 97 WSW 9 15 29.96 1015 3 4 0.37 9.40
7:07 pm 19:07 Cloudy with Light Rain 71 21.7 70 21.1 96 96 SSW 12 19 29.96 1014 9 14 0.01 0.25
7:39 pm 19:39 Cloudy 71 21.7 70 21.1 96 96 S 6 9 29.97 1015 9 14 0.01 0.25
7:45 pm 19:45 Cloudy 71 21.7 70 21.1 96 96 S 7 11 29.97 1015 9 14 0.01 0.25
7:53 pm 19:53 Cloudy 71 21.7 70 21.1 96 96 S 7 11 29.97 1015 9 14 0.01 0.25
8:34 pm 20:34 Cloudy 71 21.7 70 21.1 96 96 S 6 9 29.97 1015 10 16 0.00 0.00
8:41 pm 20:41 Cloudy 71 21.7 70 21.1 96 96 S 6 9 29.97 1015 9 14 0.00 0.00
8:53 pm 20:53 Cloudy 71 21.7 70 21.1 96 96 S 6 9 29.96 1015 9 14 0.00 0.00
9:24 pm 21:24 Cloudy 71 21.7 70 21.1 96 96 S 7 11 29.96 1014 10 16 0.00 0.00
9:51 pm 21:51 Cloudy with Mist and Fog 72 22 70 21 94 94 S 6 9 29.96 1014 6 10 0.00 0.00
9:53 pm 21:53 Cloudy with Mist and Fog 71 21.7 70 21.1 96 96 S 7 11 29.96 1015 6 10 0.00 0.00
10:15 pm 22:15 Cloudy 71 21.7 70 21.1 96 96 undefined N/A 29.96 1014 9 14 0.00 0.00
10:53 pm 22:53 Cloudy 71 21.7 70 21.1 96 96 S 8 13 29.96 1015 10 16 0.00 0.00
11:06 pm 23:06 Cloudy 71 21.7 70 21.1 96 96 S 7 11 29.97 1015 10 16 0.00 0.00
11:38 pm 23:38 Cloudy 71 21.7 70 21.1 96 96 S 6 9 29.96 1014 9 14 0.00 0.00
11:53 pm 23:53 Cloudy 71 21.7 70 21.1 96 96 S 6 9 29.96 1014 10 16 0.00 0.00

Powered by AerisWeather